User: anonymous   Login
Location: Unspecified
(0.0000°N, 0.0000°E)
Time: 18:44:30
(UTC+00:00)
Language:

CHUBUSAT 1 - Orbit

View from above orbital plane
View from above orbital plane
View from above satellite
View from above satellite

Ground track
Ground track

The orbit data is extracted from the following two-line orbital elements,

1 40300U 14070C   18351.28273975  .00000442  00000-0  22437-4 0  9992
2 40300  97.3479  64.9334 0020148 343.9915  56.6657 15.21834147228122
Epoch (UTC): 17 December 2018 06:47:08
Eccentricity: 0.0020148
inclination: 97.3479°
perigee height: 486 km
apogee height: 514 km
right ascension of ascending node: 64.9334°
argument of perigee: 343.9915°
revolutions per day: 15.21834147
mean anomaly at epoch: 56.6657°
orbit number at epoch: 22812

The dashed part of the orbit path shows where the satellite is in the earth's shadow,  

DLR